AirNav  
 
 473 users online  

D14 Fertile Municipal Airport
Fertile, Minnesota, USA

GOING TO FERTILE?


FAA INFORMATION EFFECTIVE 25 MARCH 2021

Location

FAA Identifier: D14
Lat/Long: 47-33-06.6880N 096-17-31.7590W
47-33.111467N 096-17.529317W
47.5518578,-96.2921553
(estimated)
Elevation: 1136.7 ft. / 346.5 m (surveyed)
Variation: 05E (1985)
From city: 1 mile NW of FERTILE, MN
Time zone: UTC -5 (UTC -6 during Standard Time)
Zip code: 56540

Airport Operations

Airport use: Open to the public
Activation date: 12/1955
Control tower: no
ARTCC: MINNEAPOLIS CENTER
FSS: PRINCETON FLIGHT SERVICE STATION
NOTAMs facility: PNM (NOTAM-D service available)
Attendance: UNATNDD
Wind indicator: lighted
Segmented circle: no
Lights: ACTVT PAPI RWY 14 & 32 - CTAF. LIRL RWY 14/32 TO INCR INTST & ACTVT - CTAF.
Beacon: white-green (lighted land airport)
Operates sunset to sunrise.

Airport Communications

CTAF/UNICOM: 122.8

Nearby radio navigation aids

VOR radial/distance  VOR name  Freq  Var
TVFr180/31.3THIEF RIVER FALLS VOR/DME108.4008E

Airport Services

Fuel available: 100LL
FUEL AVAILABLE 24 HR WITH CREDIT CARD.
Parking: tiedowns
Airframe service: NONE
Powerplant service: NONE
Bottled oxygen: NONE
Bulk oxygen: NONE

Runway Information

Runway 14/32

Dimensions: 3000 x 60 ft. / 914 x 18 m
Surface: asphalt, in fair condition
SVR CRACKS AND LOOSE ROCKS.
Runway edge lights: low intensity
RUNWAY 14  RUNWAY 32
Latitude: 47-33.310998N47-32.911927N
Longitude: 096-17.743603W096-17.315072W
Elevation: 1129.6 ft.1136.7 ft.
Traffic pattern: leftleft
Runway heading: 139 magnetic, 144 true319 magnetic, 324 true
Markings: basic, in fair conditionbasic, in fair condition
Visual slope indicator: 2-light PAPI on left (3.20 degrees glide path)2-light PAPI on left (3.70 degrees glide path)
Touchdown point: yes, no lightsyes, no lights

Airport Ownership and Management from official FAA records

Ownership: Publicly-owned
Owner: CITY OF FERTILE
PO BOX 628
FERTILE, MN 56540
Phone 218-945-3136
Manager: LISA LIDEN
PO BOX 628
FERTILE, MN 56540
Phone 218-945-3136
PHONE AT ARPT 218-945-6516.

Airport Operational Statistics

Aircraft based on the field: 2
Single engine airplanes: 2
    
Aircraft operations: avg 26/day *
81% local general aviation
19% transient general aviation
* for 12-month period ending 31 July 2018

Additional Remarks

BE ALERT FOR VEHICLE TRAFFIC ON TAXIWAYS.
FOR CD CTC MINNEAPOLIS ARTCC AT 651-463-5588.

Instrument Procedures

There are no published instrument procedures at D14.

Some nearby airports with instrument procedures:

D00 - Norman County Ada/Twin Valley Airport (18 nm S)
KFSE - Fosston Municipal Airport-Anderson Field (21 nm E)
KCKN - Crookston Municipal Airport Kirkwood Field (22 nm NW)
3N8 - Mahnomen County Airport (23 nm SE)
KTVF - Thief River Falls Regional Airport (31 nm N)
 
Loc | Ops | Rwys | IFR | FBO | Links
Com | Nav | Svcs | Stats | Notes
Area around D14 (Fertile Municipal Airport)
 
Road maps at: MapQuest Bing Google
 
Aerial photo
WARNING: Photo may not be current or correct
Aerial photo of D14 (Fertile Municipal Airport)
Photo by Alexander J. Krauss
Photo taken 14-Apr-2008

Do you have a better or more recent aerial photo of Fertile Municipal Airport that you would like to share? If so, please send us your photo.

 
Sectional chart

 
Airport distance calculator
Flying to Fertile Municipal Airport? Find the distance to fly.

From to D14

Sunrise and sunset
Times for 11-Apr-2021
 Local
(UTC-5)
 Zulu
(UTC)
Morning civil twilight06:1311:13
Sunrise06:4511:45
Sunset20:0801:08
Evening civil twilight20:3901:39

Current date and time
Zulu (UTC)  11-Apr-2021 05:35:47
Local (UTC-5)  11-Apr-2021 00:35:47
 
METAR
KFSE 
21nm E 
110515Z AUTO 00000KT 10SM CLR 02/M01 A2970 RMK AO2
KCKN 
22nm NW 
110515Z AUTO 00000KT 10SM CLR 02/M02 A2969 RMK AO2
K3N8 
23nm SE 
110515Z AUTO 11004KT 10SM CLR 03/01 A2969 RMK AO2 T00260006
KTVF 
31nm N 
110456Z AUTO 08010KT 8SM -RA CLR 03/M02 A2970 RMK AO2 RAB55 SLP069 P0000 T00331017 401331011
TAF
KTVF 
31nm N 
101733Z 1018/1118 VRB04KT P6SM SCT025 FM110100 10006KT P6SM SKC FM111300 11009KT P6SM BKN025
NOTAMs
Click for the latest NOTAMs
NOTAMs are issued by the DoD/FAA and will open in a separate window not controlled by AirNav.

 

 
 

FBO, Fuel Providers, and Aircraft Ground Support

  
 Business Name 
 
 Contact 
 
 Services / Description 
 
Fuel Prices
 
Comments
  
City of Fertile 218-945-3136
[web site]
Airport management, Aviation fuel

More info about City of Fertile
100LL
SS $4.19 
 Updated 02-Apr-2021
 
   write
SS=Self service
Update Fuel Prices
 

Would you like to see your business listed on this page?

 If your business provides an interesting product or service to pilots, flight crews, aircraft, or users of the Fertile Municipal Airport, you should consider listing it here.  To start the listing process, click on the button below
 
Add a business
 

Other Pages about Fertile Municipal Airport

City of Fertile
 
Update a link
 
Copyright © AirNav, LLC. All rights reserved. Privacy Policy  Contact